Location: *
(2.5500°S, 65.9667°W)
Time: 15:26:49
(UTC+00:00)

Cosmos 2084 - Pass Details

Date: 29 May 2022
Orbit: 506 x 671 km, 62.8° (Epoch: 03 July)

Event Time Altitude Azimuth Distance (km) Brightness Sun altitude
Exits shadow 08:25:39 39° 84° (E) 812 4.5 -27.7°
Drops below altitude 10° 08:28:39 10° 42° (NE) 1,747 6.7 -27.0°
Sets 08:30:51 0° 35° (NE) 2,614 7.7 -26.5°
